STARLINK-35795 (66369 NORAD) Tracking and Keplerian Element Data

This shows tracking and keplerian element data for the satellite.

Feedback or suggestion? Click here.




ElementValue
Catalog66369
NameSTARLINK-35795
Epoch Orbit594
Epoch Day354.25003472
Epoch Year2025
RAAN239.2131
Inclination53.1585
Eccentricity0.0002184
Argument of Perigee98.7891
Mean Anonmoly269.7218
Mean Motion15.30986691
Decay Rate-0.01146488
L11 66369U 25254X 25354.25003472 -.01146488 00000+0 -41453-1 0 9991
L22 66369 53.1585 239.2131 0002184 98.7891 269.7218 15.30986691 5948



Live tracking and technical data element details for STARLINK-35795 (NORAD 66369). STARLINK-35795 can be tracked NOW for your location showing map with azimuth and elevation plus other details from your city location.







IsCatalogInMostPopularTable: catalog: 66369, numindb: 5
Update: records affected: 1



GetName: 66369 STARLINK-35795

Hit Count: updated at: Sun, 08 Feb 2026 16:09:02 GMT